Location: Cheyres
(46.8153°N, 6.7877°E)
Time: 20:01:37
(UTC+00:00)

AO-109 - Pass Details

Date: 02 July 2022
Orbit: 469 x 506 km, 60.7° (Epoch: 16 August)

Event Time Altitude Azimuth Distance (km) Brightness Sun altitude
Exits shadow 02:11:16 - 161° (SSE) 2,031 ? -11.9°
Reaches altitude 10° 02:12:58 10° 141° (SE) 1,645 ? -11.8°
Maximum altitude 02:14:27 12° 117° (ESE) 1,523 ? -11.6°
Drops below altitude 10° 02:15:58 10° 93° (E) 1,659 ? -11.5°
Sets 02:19:15 0° 62° (ENE) 2,557 ? -11.1°
